Time,TemperatureF,DewpointF,PressureIn,WindDirection,WindDirectionDegrees,WindSpeedMPH,WindSpeedGustMPH,Humidity,HourlyPrecipIn,Conditions,Clouds,dailyrainin,SoftwareType,DateUTC
2013-10-16 00:04:00,47.0,42.1,30.11,NE,44,0.0,0.0,83,0.00,,,0.00,Wunderground v.1.15,2013-10-15 13:04:00,
2013-10-16 00:09:00,47.1,42.2,30.11,NE,44,0.0,0.0,83,0.00,,,0.00,Wunderground v.1.15,2013-10-15 13:09:00,
2013-10-16 00:15:00,47.1,42.2,30.11,NE,44,0.0,0.0,83,0.00,,,0.00,Wunderground v.1.15,2013-10-15 13:15:00,
2013-10-16 00:20:00,47.1,42.2,30.11,North,-999,0.0,0.0,83,0.00,,,-99.99,WeatherLink 5.9.3,2013-10-15 13:20:00,
2013-10-16 00:26:00,47.1,41.6,30.11,NE,44,0.0,0.0,81,0.00,,,0.00,Wunderground v.1.15,2013-10-15 13:26:00,
2013-10-16 00:31:00,46.9,41.4,30.11,NE,44,0.0,0.0,81,0.00,,,0.00,Wunderground v.1.15,2013-10-15 13:31:00,
2013-10-16 00:36:00,47.0,41.8,30.11,NE,44,0.0,0.0,82,0.00,,,0.00,Wunderground v.1.15,2013-10-15 13:36:00,
2013-10-16 00:41:00,47.4,42.2,30.10,NE,44,0.0,0.0,82,0.00,,,0.00,Wunderground v.1.15,2013-10-15 13:41:00,
2013-10-16 00:47:00,47.4,41.9,30.11,NE,44,0.0,0.0,81,0.00,,,0.00,Wunderground v.1.15,2013-10-15 13:47:00,
2013-10-16 00:52:00,47.2,41.7,30.11,NE,44,0.0,0.0,81,0.00,,,0.00,Wunderground v.1.15,2013-10-15 13:52:00,
2013-10-16 00:58:00,47.3,42.1,30.11,NNE,27,0.0,0.0,82,0.00,,,0.00,Wunderground v.1.15,2013-10-15 13:58:00,
2013-10-16 01:03:00,47.2,41.7,30.11,NNE,27,0.0,0.0,81,0.00,,,0.00,Wunderground v.1.15,2013-10-15 14:03:00,
2013-10-16 01:08:00,46.8,41.6,30.11,NNE,27,0.0,0.0,82,0.00,,,0.00,Wunderground v.1.15,2013-10-15 14:08:00,
2013-10-16 01:14:00,46.2,41.0,30.11,NNE,27,0.0,0.0,82,0.00,,,0.00,Wunderground v.1.15,2013-10-15 14:14:00,
2013-10-16 01:19:00,45.7,40.5,30.11,NNE,27,0.0,0.0,82,0.00,,,0.00,Wunderground v.1.15,2013-10-15 14:19:00,
2013-10-16 01:24:00,45.3,40.7,30.10,NNE,27,0.0,0.0,84,0.00,,,0.00,Wunderground v.1.15,2013-10-15 14:24:00,
2013-10-16 01:30:00,45.5,40.3,30.11,North,-999,0.0,0.0,82,0.00,,,-99.99,WeatherLink 5.9.3,2013-10-15 14:30:00,
2013-10-16 01:36:00,44.6,40.7,30.10,NNE,27,0.0,0.0,86,0.00,,,0.00,Wunderground v.1.15,2013-10-15 14:36:00,
2013-10-16 01:41:00,44.4,40.2,30.10,NNE,27,0.0,0.0,85,0.00,,,0.00,Wunderground v.1.15,2013-10-15 14:41:00,
2013-10-16 01:46:00,44.3,40.7,30.10,NNE,27,0.0,0.0,87,0.00,,,0.00,Wunderground v.1.15,2013-10-15 14:46:00,
2013-10-16 01:51:00,44.4,40.8,30.10,NNE,27,0.0,0.0,87,0.00,,,0.00,Wunderground v.1.15,2013-10-15 14:51:00,
2013-10-16 01:57:00,44.4,40.8,30.10,NNE,27,0.0,0.0,87,0.00,,,0.00,Wunderground v.1.15,2013-10-15 14:57:00,
2013-10-16 02:02:00,44.1,40.5,30.10,NNE,27,0.0,0.0,87,0.00,,,0.00,Wunderground v.1.15,2013-10-15 15:02:00,
2013-10-16 02:08:00,44.0,40.4,30.10,NNE,27,0.0,0.0,87,0.00,,,0.00,Wunderground v.1.15,2013-10-15 15:08:00,
2013-10-16 02:13:00,44.0,40.4,30.10,NNE,27,0.0,0.0,87,0.00,,,0.00,Wunderground v.1.15,2013-10-15 15:13:00,
2013-10-16 02:18:00,44.0,40.4,30.10,NNE,27,0.0,0.0,87,0.00,,,0.00,Wunderground v.1.15,2013-10-15 15:18:00,
2013-10-16 02:23:00,43.9,40.3,30.09,NNE,27,0.0,0.0,87,0.00,,,0.00,Wunderground v.1.15,2013-10-15 15:23:00,
2013-10-16 02:29:00,43.7,40.1,30.10,NNE,27,0.0,0.0,87,0.00,,,0.00,Wunderground v.1.15,2013-10-15 15:29:00,
2013-10-16 02:34:00,43.5,39.9,30.09,NNE,27,0.0,0.0,87,0.00,,,0.00,Wunderground v.1.15,2013-10-15 15:34:00,
2013-10-16 02:40:00,43.6,40.0,30.10,North,-999,0.0,0.0,87,0.00,,,-99.99,WeatherLink 5.9.3,2013-10-15 15:40:00,
2013-10-16 02:46:00,43.1,39.5,30.09,NNE,27,0.0,0.0,87,0.00,,,0.00,Wunderground v.1.15,2013-10-15 15:46:00,
2013-10-16 02:52:00,42.6,38.7,30.09,NNE,27,0.0,0.0,86,0.00,,,0.00,Wunderground v.1.15,2013-10-15 15:52:00,
2013-10-16 02:57:00,42.2,38.6,30.09,NNE,27,0.0,0.0,87,0.00,,,0.00,Wunderground v.1.15,2013-10-15 15:57:00,
2013-10-16 03:02:00,41.9,38.3,30.08,NNE,27,0.0,0.0,87,0.00,,,0.00,Wunderground v.1.15,2013-10-15 16:02:00,
2013-10-16 03:08:00,42.2,39.2,30.08,NNE,27,0.0,0.0,89,0.00,,,0.00,Wunderground v.1.15,2013-10-15 16:08:00,
2013-10-16 03:13:00,42.4,39.4,30.09,NNE,27,0.0,0.0,89,0.00,,,0.00,Wunderground v.1.15,2013-10-15 16:13:00,
2013-10-16 03:18:00,42.3,39.0,30.09,NNE,27,0.0,0.0,88,0.00,,,0.00,Wunderground v.1.15,2013-10-15 16:18:00,
2013-10-16 03:24:00,42.1,38.8,30.09,NNE,27,0.0,0.0,88,0.00,,,0.00,Wunderground v.1.15,2013-10-15 16:24:00,
2013-10-16 03:29:00,42.0,38.7,30.09,NNE,27,0.0,0.0,88,0.00,,,0.00,Wunderground v.1.15,2013-10-15 16:29:00,
2013-10-16 03:35:00,41.8,38.5,30.09,NNE,27,0.0,0.0,88,0.00,,,0.00,Wunderground v.1.15,2013-10-15 16:35:00,
2013-10-16 03:40:00,41.9,38.6,30.09,North,-999,0.0,0.0,88,0.00,,,-99.99,WeatherLink 5.9.3,2013-10-15 16:40:00,
2013-10-16 03:46:00,41.2,38.2,30.08,NNE,27,0.0,0.0,89,0.00,,,0.00,Wunderground v.1.15,2013-10-15 16:46:00,
2013-10-16 03:51:00,41.0,38.0,30.08,NNE,27,0.0,0.0,89,0.00,,,0.00,Wunderground v.1.15,2013-10-15 16:51:00,
2013-10-16 03:56:00,41.1,38.4,30.08,NNE,27,0.0,0.0,90,0.00,,,0.00,Wunderground v.1.15,2013-10-15 16:56:00,
2013-10-16 04:01:00,41.3,38.6,30.09,NNE,27,0.0,0.0,90,0.00,,,0.00,Wunderground v.1.15,2013-10-15 17:01:00,
2013-10-16 04:06:00,41.3,38.6,30.09,NNE,27,0.0,0.0,90,0.00,,,0.00,Wunderground v.1.15,2013-10-15 17:06:00,
2013-10-16 04:12:00,41.1,38.4,30.09,NNE,27,0.0,0.0,90,0.00,,,0.00,Wunderground v.1.15,2013-10-15 17:12:00,
2013-10-16 04:17:00,40.9,38.2,30.09,NNE,27,0.0,0.0,90,0.00,,,0.00,Wunderground v.1.15,2013-10-15 17:17:00,
2013-10-16 04:23:00,40.9,38.2,30.09,NNE,27,0.0,0.0,90,0.00,,,0.00,Wunderground v.1.15,2013-10-15 17:23:00,
2013-10-16 04:28:00,41.0,38.6,30.09,NNE,27,0.0,0.0,91,0.00,,,0.00,Wunderground v.1.15,2013-10-15 17:28:00,
2013-10-16 04:34:00,40.9,38.2,30.09,NNE,27,0.0,0.0,90,0.00,,,0.00,Wunderground v.1.15,2013-10-15 17:34:00,
2013-10-16 04:39:00,40.6,37.9,30.09,NNE,27,0.0,0.0,90,0.00,,,0.00,Wunderground v.1.15,2013-10-15 17:39:00,
2013-10-16 04:44:00,40.2,37.5,30.10,NNE,27,0.0,0.0,90,0.00,,,0.00,Wunderground v.1.15,2013-10-15 17:44:00,
2013-10-16 04:50:00,40.4,37.7,30.09,North,-999,0.0,0.0,90,0.00,,,-99.99,WeatherLink 5.9.3,2013-10-15 17:50:00,
2013-10-16 04:56:00,39.9,37.5,30.10,NNE,27,0.0,0.0,91,0.00,,,0.00,Wunderground v.1.15,2013-10-15 17:56:00,
2013-10-16 05:01:00,39.7,37.3,30.10,NNE,27,0.0,0.0,91,0.00,,,0.00,Wunderground v.1.15,2013-10-15 18:01:00,
2013-10-16 05:07:00,39.6,37.2,30.10,NNE,27,0.0,0.0,91,0.00,,,0.00,Wunderground v.1.15,2013-10-15 18:07:00,
2013-10-16 05:12:00,39.7,37.3,30.10,NNE,27,0.0,0.0,91,0.00,,,0.00,Wunderground v.1.15,2013-10-15 18:12:00,
2013-10-16 05:18:00,39.8,37.7,30.11,NNE,27,0.0,0.0,92,0.00,,,0.00,Wunderground v.1.15,2013-10-15 18:18:00,
2013-10-16 05:23:00,39.8,37.7,30.11,NNE,27,0.0,0.0,92,0.00,,,0.00,Wunderground v.1.15,2013-10-15 18:23:00,
2013-10-16 05:28:00,39.9,37.8,30.11,NNE,27,0.0,0.0,92,0.00,,,0.00,Wunderground v.1.15,2013-10-15 18:28:00,
2013-10-16 05:34:00,40.0,37.9,30.11,NNE,27,0.0,0.0,92,0.00,,,0.00,Wunderground v.1.15,2013-10-15 18:34:00,
2013-10-16 05:39:00,39.9,37.8,30.11,NNE,27,0.0,0.0,92,0.00,,,0.00,Wunderground v.1.15,2013-10-15 18:39:00,
2013-10-16 05:45:00,39.5,37.1,30.12,NNE,27,0.0,0.0,91,0.00,,,0.00,Wunderground v.1.15,2013-10-15 18:45:00,
2013-10-16 05:50:00,39.8,37.4,30.11,North,-999,0.0,0.0,91,0.00,,,-99.99,WeatherLink 5.9.3,2013-10-15 18:50:00,
2013-10-16 05:56:00,39.6,37.5,30.12,NNE,27,0.0,0.0,92,0.00,,,0.00,Wunderground v.1.15,2013-10-15 18:56:00,
2013-10-16 06:02:00,39.5,37.4,30.12,NNE,27,0.0,0.0,92,0.00,,,0.00,Wunderground v.1.15,2013-10-15 19:02:00,
2013-10-16 06:07:00,39.5,37.4,30.12,NNE,27,0.0,0.0,92,0.00,,,0.00,Wunderground v.1.15,2013-10-15 19:07:00,
2013-10-16 06:13:00,39.3,36.9,30.13,NNE,27,0.0,0.0,91,0.00,,,0.00,Wunderground v.1.15,2013-10-15 19:13:00,
2013-10-16 06:18:00,39.2,37.1,30.13,NNE,27,0.0,0.0,92,0.00,,,0.00,Wunderground v.1.15,2013-10-15 19:18:00,
2013-10-16 06:23:00,39.1,37.0,30.13,NNE,27,0.0,0.0,92,0.00,,,0.00,Wunderground v.1.15,2013-10-15 19:23:00,
2013-10-16 06:29:00,38.9,36.8,30.13,NNE,27,0.0,0.0,92,0.00,,,0.00,Wunderground v.1.15,2013-10-15 19:29:00,
2013-10-16 06:34:00,39.6,38.0,30.13,NNE,27,0.0,0.0,94,0.00,,,0.00,Wunderground v.1.15,2013-10-15 19:34:00,
2013-10-16 06:39:00,40.9,39.6,30.13,NNE,27,0.0,0.0,95,0.00,,,0.00,Wunderground v.1.15,2013-10-15 19:39:00,
2013-10-16 06:45:00,42.3,41.0,30.13,NNE,27,0.0,0.0,95,0.00,,,0.00,Wunderground v.1.15,2013-10-15 19:45:00,
2013-10-16 06:50:00,41.5,40.2,30.13,North,-999,0.0,0.0,95,0.00,,,-99.99,WeatherLink 5.9.3,2013-10-15 19:50:00,
2013-10-16 06:56:00,44.9,42.1,30.14,NNE,27,0.0,0.0,90,0.00,,,0.00,Wunderground v.1.15,2013-10-15 19:56:00,
2013-10-16 07:01:00,46.8,41.9,30.13,NNE,27,0.0,0.0,83,0.00,,,0.00,Wunderground v.1.15,2013-10-15 20:01:00,
2013-10-16 07:06:00,47.5,41.0,30.13,NNE,27,0.0,0.0,78,0.00,,,0.00,Wunderground v.1.15,2013-10-15 20:06:00,
2013-10-16 07:12:00,48.5,40.9,30.14,NNE,26,0.0,0.0,75,0.00,,,0.00,Wunderground v.1.15,2013-10-15 20:12:00,
2013-10-16 07:17:00,49.5,41.6,30.13,NNE,27,0.0,0.0,74,0.00,,,0.00,Wunderground v.1.15,2013-10-15 20:17:00,
2013-10-16 07:22:00,51.0,41.9,30.13,NNE,27,0.0,0.0,71,0.00,,,0.00,Wunderground v.1.15,2013-10-15 20:22:00,
2013-10-16 07:28:00,51.1,40.9,30.14,NNE,27,0.0,0.0,68,0.00,,,0.00,Wunderground v.1.15,2013-10-15 20:28:00,
2013-10-16 07:33:00,50.6,40.8,30.14,NNE,27,0.0,0.0,69,0.00,,,0.00,Wunderground v.1.15,2013-10-15 20:33:00,
2013-10-16 07:38:00,50.6,41.2,30.14,NNE,27,0.0,1.0,70,0.00,,,0.00,Wunderground v.1.15,2013-10-15 20:38:00,
2013-10-16 07:43:00,51.5,42.0,30.14,NNE,27,0.0,0.0,70,0.00,,,0.00,Wunderground v.1.15,2013-10-15 20:43:00,
2013-10-16 07:49:00,52.4,42.1,30.14,NNE,15,0.0,1.0,68,0.00,,,0.00,Wunderground v.1.15,2013-10-15 20:49:00,
2013-10-16 07:54:00,53.5,42.8,30.14,NNE,17,0.0,0.0,67,0.00,,,0.00,Wunderground v.1.15,2013-10-15 20:54:00,
2013-10-16 08:00:00,52.9,43.0,30.14,NNE,22,0.0,1.0,69,0.00,,,-99.99,WeatherLink 5.9.3,2013-10-15 21:00:00,
2013-10-16 08:06:00,57.4,44.1,30.14,NNE,21,0.0,0.0,61,0.00,,,0.00,Wunderground v.1.15,2013-10-15 21:06:00,
2013-10-16 08:12:00,58.3,42.7,30.14,SSE,153,0.0,1.0,56,0.00,,,0.00,Wunderground v.1.15,2013-10-15 21:12:00,
2013-10-16 08:17:00,59.0,44.2,30.14,NE,42,0.0,1.0,58,0.00,,,0.00,Wunderground v.1.15,2013-10-15 21:17:00,
2013-10-16 08:22:00,60.2,44.4,30.14,NNE,25,0.0,1.0,56,0.00,,,0.00,Wunderground v.1.15,2013-10-15 21:22:00,
2013-10-16 08:27:00,61.0,44.7,30.14,ENE,66,1.0,2.0,55,0.00,,,0.00,Wunderground v.1.15,2013-10-15 21:27:00,
2013-10-16 08:33:00,62.4,47.0,30.14,NE,51,0.0,0.0,57,0.00,,,0.00,Wunderground v.1.15,2013-10-15 21:33:00,
2013-10-16 08:38:00,63.9,46.4,30.14,NNE,13,0.0,1.0,53,0.00,,,0.00,Wunderground v.1.15,2013-10-15 21:38:00,
2013-10-16 08:43:00,64.5,46.5,30.14,NE,45,1.0,2.0,52,0.00,,,0.00,Wunderground v.1.15,2013-10-15 21:43:00,
2013-10-16 08:49:00,65.3,46.2,30.14,North,10,1.0,2.0,50,0.00,,,0.00,Wunderground v.1.15,2013-10-15 21:49:00,
2013-10-16 08:54:00,65.9,46.2,30.14,North,349,1.0,2.0,49,0.00,,,0.00,Wunderground v.1.15,2013-10-15 21:54:00,
2013-10-16 09:00:00,65.7,46.5,30.14,North,0,0.0,2.0,50,0.00,,,-99.99,WeatherLink 5.9.3,2013-10-15 22:00:00,
2013-10-16 09:06:00,67.7,41.2,30.14,NW,325,2.0,4.0,38,0.00,,,0.00,Wunderground v.1.15,2013-10-15 22:06:00,
2013-10-16 09:12:00,69.0,40.9,30.14,North,10,2.0,2.0,36,0.00,,,0.00,Wunderground v.1.15,2013-10-15 22:12:00,
2013-10-16 09:17:00,69.7,42.3,30.14,NW,313,1.0,2.0,37,0.00,,,0.00,Wunderground v.1.15,2013-10-15 22:17:00,
2013-10-16 09:22:00,70.3,40.6,30.14,WNW,294,2.0,3.0,34,0.00,,,0.00,Wunderground v.1.15,2013-10-15 22:22:00,
2013-10-16 09:28:00,70.2,40.5,30.14,WNW,283,2.0,3.0,34,0.00,,,0.00,Wunderground v.1.15,2013-10-15 22:28:00,
2013-10-16 09:33:00,70.5,41.5,30.14,WNW,293,2.0,4.0,35,0.00,,,0.00,Wunderground v.1.15,2013-10-15 22:33:00,
2013-10-16 09:39:00,71.0,40.4,30.13,NNW,336,2.0,4.0,33,0.00,,,0.00,Wunderground v.1.15,2013-10-15 22:39:00,
2013-10-16 09:44:00,71.5,39.3,30.13,NNW,332,2.0,3.0,31,0.00,,,0.00,Wunderground v.1.15,2013-10-15 22:44:00,
2013-10-16 09:50:00,71.3,40.7,30.13,NNE,22,2.0,5.0,33,0.00,,,-99.99,WeatherLink 5.9.3,2013-10-15 22:50:00,
2013-10-16 09:56:00,73.2,40.7,30.13,NW,323,2.0,3.0,31,0.00,,,0.00,Wunderground v.1.15,2013-10-15 22:56:00,
2013-10-16 10:01:00,73.7,40.3,30.13,NNW,329,2.0,2.0,30,0.00,,,0.00,Wunderground v.1.15,2013-10-15 23:01:00,
2013-10-16 10:07:00,74.1,40.7,30.13,NNE,20,2.0,2.0,30,0.00,,,0.00,Wunderground v.1.15,2013-10-15 23:07:00,
2013-10-16 10:12:00,74.7,40.3,30.13,SW,218,1.0,3.0,29,0.00,,,0.00,Wunderground v.1.15,2013-10-15 23:12:00,
2013-10-16 10:18:00,75.6,42.8,30.12,West,271,1.0,4.0,31,0.00,,,0.00,Wunderground v.1.15,2013-10-15 23:18:00,
2013-10-16 10:23:00,76.0,42.3,30.12,NW,322,1.0,3.0,30,0.00,,,0.00,Wunderground v.1.15,2013-10-15 23:23:00,
2013-10-16 10:28:00,76.3,42.6,30.12,NW,314,1.0,3.0,30,0.00,,,0.00,Wunderground v.1.15,2013-10-15 23:28:00,
2013-10-16 10:34:00,77.0,39.5,30.12,NW,317,1.0,4.0,26,0.00,,,0.00,Wunderground v.1.15,2013-10-15 23:34:00,
2013-10-16 10:39:00,77.1,39.6,30.12,NNW,333,2.0,4.0,26,0.00,,,0.00,Wunderground v.1.15,2013-10-15 23:39:00,
2013-10-16 10:44:00,76.8,40.3,30.11,NW,313,2.0,6.0,27,0.00,,,0.00,Wunderground v.1.15,2013-10-15 23:44:00,
2013-10-16 10:49:00,77.0,41.4,30.11,WNW,293,2.0,6.0,28,0.00,,,0.00,Wunderground v.1.15,2013-10-15 23:49:00,
2013-10-16 10:55:00,77.9,38.2,30.11,North,11,2.0,6.0,24,0.00,,,0.00,Wunderground v.1.15,2013-10-15 23:55:00,
2013-10-16 11:00:00,77.3,41.6,30.11,WNW,292,2.0,7.0,28,0.00,,,-99.99,WeatherLink 5.9.3,2013-10-16 00:00:00,
2013-10-16 11:06:00,78.1,40.4,30.10,WSW,255,2.0,4.0,26,0.00,,,0.00,Wunderground v.1.15,2013-10-16 00:06:00,
2013-10-16 11:11:00,78.5,38.7,30.10,NNE,23,2.0,2.0,24,0.00,,,0.00,Wunderground v.1.15,2013-10-16 00:11:00,
2013-10-16 11:16:00,78.4,39.7,30.10,NW,325,3.0,5.0,25,0.00,,,0.00,Wunderground v.1.15,2013-10-16 00:16:00,
2013-10-16 11:22:00,78.8,36.7,30.09,West,274,2.0,6.0,22,0.00,,,0.00,Wunderground v.1.15,2013-10-16 00:22:00,
2013-10-16 11:27:00,78.5,37.6,30.09,NW,323,3.0,6.0,23,0.00,,,0.00,Wunderground v.1.15,2013-10-16 00:27:00,
2013-10-16 11:32:00,78.7,38.9,30.09,North,356,3.0,3.0,24,0.00,,,0.00,Wunderground v.1.15,2013-10-16 00:32:00,
2013-10-16 11:38:00,78.7,36.6,30.09,WSW,243,3.0,6.0,22,0.00,,,0.00,Wunderground v.1.15,2013-10-16 00:38:00,
2013-10-16 11:43:00,79.0,36.9,30.08,North,4,3.0,3.0,22,0.00,,,0.00,Wunderground v.1.15,2013-10-16 00:43:00,
2013-10-16 11:48:00,79.6,38.5,30.08,WNW,285,3.0,3.0,23,0.00,,,0.00,Wunderground v.1.15,2013-10-16 00:48:00,
2013-10-16 11:54:00,79.7,38.6,30.07,NW,321,2.0,6.0,23,0.00,,,0.00,Wunderground v.1.15,2013-10-16 00:54:00,
2013-10-16 11:59:00,80.3,39.1,30.07,NE,34,2.0,6.0,23,0.00,,,0.00,Wunderground v.1.15,2013-10-16 00:59:00,
2013-10-16 12:04:00,80.7,37.1,30.06,NW,309,2.0,5.0,21,0.00,,,0.00,Wunderground v.1.15,2013-10-16 01:04:00,
2013-10-16 12:10:00,80.5,39.3,30.07,West,270,2.0,8.0,23,0.00,,,-99.99,WeatherLink 5.9.3,2013-10-16 01:10:00,
2013-10-16 12:16:00,81.4,40.0,30.06,WNW,282,2.0,5.0,23,0.00,,,0.00,Wunderground v.1.15,2013-10-16 01:16:00,
2013-10-16 12:21:00,81.4,37.7,30.05,NNW,347,3.0,3.0,21,0.00,,,0.00,Wunderground v.1.15,2013-10-16 01:21:00,
2013-10-16 12:26:00,81.4,37.7,30.05,NNE,23,3.0,6.0,21,0.00,,,0.00,Wunderground v.1.15,2013-10-16 01:26:00,
2013-10-16 12:32:00,81.1,37.5,30.04,NNW,342,3.0,3.0,21,0.00,,,0.00,Wunderground v.1.15,2013-10-16 01:32:00,
2013-10-16 12:37:00,81.0,37.4,30.04,WNW,303,3.0,5.0,21,0.00,,,0.00,Wunderground v.1.15,2013-10-16 01:37:00,
2013-10-16 12:42:00,81.3,37.6,30.03,NNW,333,4.0,5.0,21,0.00,,,0.00,Wunderground v.1.15,2013-10-16 01:42:00,
2013-10-16 12:47:00,81.2,37.5,30.03,NW,314,4.0,7.0,21,0.00,,,0.00,Wunderground v.1.15,2013-10-16 01:47:00,
2013-10-16 12:53:00,81.6,36.6,30.02,WNW,300,4.0,10.0,20,0.00,,,0.00,Wunderground v.1.15,2013-10-16 01:53:00,
2013-10-16 12:58:00,81.8,35.5,30.02,North,1,4.0,10.0,19,0.00,,,0.00,Wunderground v.1.15,2013-10-16 01:58:00,
2013-10-16 13:04:00,82.1,34.4,30.02,NNE,20,4.0,9.0,18,0.00,,,0.00,Wunderground v.1.15,2013-10-16 02:04:00,
2013-10-16 13:10:00,82.0,37.0,30.02,NNW,337,4.0,12.0,20,0.00,,,-99.99,WeatherLink 5.9.3,2013-10-16 02:10:00,
2013-10-16 13:16:00,82.7,36.2,30.01,SSW,192,4.0,8.0,19,0.00,,,0.00,Wunderground v.1.15,2013-10-16 02:16:00,
2013-10-16 13:22:00,82.8,33.5,30.00,WNW,300,4.0,4.0,17,0.00,,,0.00,Wunderground v.1.15,2013-10-16 02:22:00,
2013-10-16 13:27:00,83.2,33.8,30.00,NNE,20,3.0,5.0,17,0.00,,,0.00,Wunderground v.1.15,2013-10-16 02:27:00,
2013-10-16 13:32:00,83.3,35.4,30.00,NW,311,4.0,6.0,18,0.00,,,0.00,Wunderground v.1.15,2013-10-16 02:32:00,
2013-10-16 13:38:00,83.2,36.6,29.99,NNW,338,5.0,6.0,19,0.00,,,0.00,Wunderground v.1.15,2013-10-16 02:38:00,
2013-10-16 13:43:00,83.6,37.0,29.98,WNW,293,3.0,5.0,19,0.00,,,0.00,Wunderground v.1.15,2013-10-16 02:43:00,
2013-10-16 13:48:00,84.3,37.5,29.98,NNW,347,3.0,5.0,19,0.00,,,0.00,Wunderground v.1.15,2013-10-16 02:48:00,
2013-10-16 13:54:00,84.1,37.4,29.98,SW,225,3.0,5.0,19,0.00,,,0.00,Wunderground v.1.15,2013-10-16 02:54:00,
2013-10-16 13:59:00,84.3,41.3,29.97,NW,319,3.0,5.0,22,0.00,,,0.00,Wunderground v.1.15,2013-10-16 02:59:00,
2013-10-16 14:04:00,84.7,37.9,29.97,NW,315,3.0,7.0,19,0.00,,,0.00,Wunderground v.1.15,2013-10-16 03:04:00,
2013-10-16 14:10:00,84.8,40.5,29.97,WNW,292,2.0,5.0,21,0.00,,,-99.99,WeatherLink 5.9.3,2013-10-16 03:10:00,
2013-10-16 14:16:00,85.0,38.1,29.96,NNW,336,3.0,4.0,19,0.00,,,0.00,Wunderground v.1.15,2013-10-16 03:16:00,
2013-10-16 14:22:00,84.9,38.0,29.95,NW,308,3.0,3.0,19,0.00,,,0.00,Wunderground v.1.15,2013-10-16 03:22:00,
2013-10-16 14:27:00,84.7,39.2,29.95,West,280,4.0,7.0,20,0.00,,,0.00,Wunderground v.1.15,2013-10-16 03:27:00,
2013-10-16 14:32:00,84.8,36.6,29.95,NW,311,4.0,5.0,18,0.00,,,0.00,Wunderground v.1.15,2013-10-16 03:32:00,
2013-10-16 14:38:00,85.1,35.4,29.94,ENE,63,4.0,5.0,17,0.00,,,0.00,Wunderground v.1.15,2013-10-16 03:38:00,
2013-10-16 14:43:00,85.4,32.5,29.94,NNE,31,4.0,5.0,15,0.00,,,0.00,Wunderground v.1.15,2013-10-16 03:43:00,
2013-10-16 14:49:00,85.4,32.5,29.94,WNW,290,4.0,6.0,15,0.00,,,0.00,Wunderground v.1.15,2013-10-16 03:49:00,
2013-10-16 14:54:00,86.0,29.4,29.94,ENE,63,3.0,3.0,13,0.00,,,0.00,Wunderground v.1.15,2013-10-16 03:54:00,
2013-10-16 14:59:00,86.0,33.0,29.93,SW,214,3.0,6.0,15,0.00,,,0.00,Wunderground v.1.15,2013-10-16 03:59:00,
2013-10-16 15:01:00,86.1,33.0,29.94,NNE,15,3.0,4.0,15,0.00,,,0.00,Wunderground v.1.15,2013-10-16 04:01:00,
2013-10-16 15:02:00,86.1,29.5,29.94,NW,323,3.0,4.0,13,0.00,,,0.00,Wunderground v.1.15,2013-10-16 04:02:00,
2013-10-16 15:05:00,86.2,31.4,29.93,West,271,4.0,4.0,14,0.00,,,0.00,Wunderground v.1.15,2013-10-16 04:05:00,
2013-10-16 15:06:00,86.1,31.3,29.93,West,264,4.0,4.0,14,0.00,,,0.00,Wunderground v.1.15,2013-10-16 04:06:00,
2013-10-16 15:08:00,85.9,31.2,29.93,WNW,297,4.0,4.0,14,0.00,,,0.00,Wunderground v.1.15,2013-10-16 04:08:00,
2013-10-16 15:10:00,85.9,29.3,29.92,North,357,4.0,4.0,13,0.00,,,0.00,Wunderground v.1.15,2013-10-16 04:10:00,
2013-10-16 15:16:00,86.0,33.0,29.92,East,91,4.0,4.0,15,0.00,,,0.00,Wunderground v.1.15,2013-10-16 04:16:00,
2013-10-16 15:21:00,86.1,31.3,29.92,NNW,336,3.0,3.0,14,0.00,,,0.00,Wunderground v.1.15,2013-10-16 04:21:00,
2013-10-16 15:26:00,86.4,33.3,29.92,NW,323,3.0,8.0,15,0.00,,,0.00,Wunderground v.1.15,2013-10-16 04:26:00,
2013-10-16 15:31:00,86.5,31.6,29.92,NW,318,3.0,4.0,14,0.00,,,0.00,Wunderground v.1.15,2013-10-16 04:31:00,
2013-10-16 15:37:00,86.3,33.2,29.92,NNW,338,4.0,6.0,15,0.00,,,0.00,Wunderground v.1.15,2013-10-16 04:37:00,
2013-10-16 15:42:00,86.5,29.8,29.92,WNW,285,4.0,7.0,13,0.00,,,0.00,Wunderground v.1.15,2013-10-16 04:42:00,
2013-10-16 15:47:00,86.5,33.4,29.92,NW,323,3.0,7.0,15,0.00,,,0.00,Wunderground v.1.15,2013-10-16 04:47:00,
2013-10-16 15:53:00,86.7,33.5,29.92,WNW,297,3.0,11.0,15,0.00,,,0.00,Wunderground v.1.15,2013-10-16 04:53:00,
2013-10-16 15:58:00,86.0,31.2,29.91,South,190,4.0,11.0,14,0.00,,,0.00,Wunderground v.1.15,2013-10-16 04:58:00,
2013-10-16 16:04:00,86.7,33.5,29.91,NNW,328,3.0,4.0,15,0.00,,,0.00,Wunderground v.1.15,2013-10-16 05:04:00,
2013-10-16 16:09:00,86.8,33.6,29.91,NW,326,2.0,4.0,15,0.00,,,0.00,Wunderground v.1.15,2013-10-16 05:09:00,
2013-10-16 16:14:00,86.3,34.8,29.91,NNW,345,3.0,5.0,16,0.00,,,0.00,Wunderground v.1.15,2013-10-16 05:14:00,
2013-10-16 16:20:00,86.7,35.1,29.91,West,270,3.0,11.0,16,0.00,,,-99.99,WeatherLink 5.9.3,2013-10-16 05:20:00,
2013-10-16 16:26:00,86.1,33.0,29.91,ENE,62,3.0,6.0,15,0.00,,,0.00,Wunderground v.1.15,2013-10-16 05:26:00,
2013-10-16 16:32:00,86.0,31.2,29.91,WNW,285,3.0,4.0,14,0.00,,,0.00,Wunderground v.1.15,2013-10-16 05:32:00,
2013-10-16 16:37:00,86.0,33.0,29.91,WNW,302,3.0,4.0,15,0.00,,,0.00,Wunderground v.1.15,2013-10-16 05:37:00,
2013-10-16 16:42:00,86.3,31.5,29.91,NW,317,3.0,3.0,14,0.00,,,0.00,Wunderground v.1.15,2013-10-16 05:42:00,
2013-10-16 16:48:00,86.1,31.3,29.91,NNE,17,3.0,4.0,14,0.00,,,0.00,Wunderground v.1.15,2013-10-16 05:48:00,
2013-10-16 16:53:00,85.7,29.2,29.90,WNW,293,3.0,5.0,13,0.00,,,0.00,Wunderground v.1.15,2013-10-16 05:53:00,
2013-10-16 16:58:00,85.8,31.1,29.90,WNW,284,3.0,5.0,14,0.00,,,0.00,Wunderground v.1.15,2013-10-16 05:58:00,
2013-10-16 17:04:00,85.8,31.1,29.90,NNE,30,3.0,7.0,14,0.00,,,0.00,Wunderground v.1.15,2013-10-16 06:04:00,
2013-10-16 17:09:00,86.2,31.4,29.90,NW,313,2.0,7.0,14,0.00,,,0.00,Wunderground v.1.15,2013-10-16 06:09:00,
2013-10-16 17:14:00,86.3,29.6,29.90,NNE,27,2.0,3.0,13,0.00,,,0.00,Wunderground v.1.15,2013-10-16 06:14:00,
2013-10-16 17:20:00,86.3,29.6,29.90,NW,315,2.0,6.0,13,0.00,,,-99.99,WeatherLink 5.9.3,2013-10-16 06:20:00,
2013-10-16 17:26:00,85.8,29.3,29.90,NNW,345,3.0,4.0,13,0.00,,,0.00,Wunderground v.1.15,2013-10-16 06:26:00,
2013-10-16 17:31:00,85.2,30.6,29.90,NW,317,3.0,6.0,14,0.00,,,0.00,Wunderground v.1.15,2013-10-16 06:31:00,
2013-10-16 17:36:00,85.0,28.6,29.90,NW,318,3.0,6.0,13,0.00,,,0.00,Wunderground v.1.15,2013-10-16 06:36:00,
2013-10-16 17:41:00,85.3,28.9,29.90,WSW,257,2.0,3.0,13,0.00,,,0.00,Wunderground v.1.15,2013-10-16 06:41:00,
2013-10-16 17:47:00,84.9,28.6,29.90,West,280,3.0,5.0,13,0.00,,,0.00,Wunderground v.1.15,2013-10-16 06:47:00,
2013-10-16 17:52:00,84.7,28.4,29.89,WNW,303,3.0,5.0,13,0.00,,,0.00,Wunderground v.1.15,2013-10-16 06:52:00,
2013-10-16 17:57:00,84.4,30.0,29.89,WNW,289,3.0,7.0,14,0.00,,,0.00,Wunderground v.1.15,2013-10-16 06:57:00,
2013-10-16 18:03:00,84.1,29.7,29.89,NW,323,2.0,2.0,14,0.00,,,0.00,Wunderground v.1.15,2013-10-16 07:03:00,
2013-10-16 18:08:00,83.9,31.3,29.89,NW,309,1.0,2.0,15,0.00,,,0.00,Wunderground v.1.15,2013-10-16 07:08:00,
2013-10-16 18:13:00,83.8,27.7,29.89,NNE,14,2.0,4.0,13,0.00,,,0.00,Wunderground v.1.15,2013-10-16 07:13:00,
2013-10-16 18:19:00,83.1,28.9,29.89,NE,49,2.0,4.0,14,0.00,,,0.00,Wunderground v.1.15,2013-10-16 07:19:00,
2013-10-16 18:24:00,82.8,26.9,29.89,NNE,24,2.0,2.0,13,0.00,,,0.00,Wunderground v.1.15,2013-10-16 07:24:00,
2013-10-16 18:30:00,83.0,30.6,29.89,NNW,337,2.0,8.0,15,0.00,,,-99.99,WeatherLink 5.9.3,2013-10-16 07:30:00,
2013-10-16 18:36:00,80.8,28.8,29.90,NNW,346,1.0,5.0,15,0.00,,,0.00,Wunderground v.1.15,2013-10-16 07:36:00,
2013-10-16 18:41:00,79.9,28.1,29.90,NW,325,1.0,1.0,15,0.00,,,0.00,Wunderground v.1.15,2013-10-16 07:41:00,
2013-10-16 18:46:00,79.0,28.9,29.90,NNE,26,0.0,1.0,16,0.00,,,0.00,Wunderground v.1.15,2013-10-16 07:46:00,
2013-10-16 18:51:00,77.9,29.5,29.90,NNE,25,0.0,0.0,17,0.00,,,0.00,Wunderground v.1.15,2013-10-16 07:51:00,
2013-10-16 18:57:00,77.0,30.2,29.90,North,3,0.0,1.0,18,0.00,,,0.00,Wunderground v.1.15,2013-10-16 07:57:00,
2013-10-16 19:02:00,75.9,29.3,29.90,North,3,0.0,0.0,18,0.00,,,0.00,Wunderground v.1.15,2013-10-16 08:02:00,
2013-10-16 19:07:00,74.8,29.8,29.90,North,4,0.0,0.0,19,0.00,,,0.00,Wunderground v.1.15,2013-10-16 08:07:00,
2013-10-16 19:13:00,73.5,31.1,29.90,North,3,0.0,0.0,21,0.00,,,0.00,Wunderground v.1.15,2013-10-16 08:13:00,
2013-10-16 19:18:00,72.3,31.3,29.90,North,3,0.0,0.0,22,0.00,,,0.00,Wunderground v.1.15,2013-10-16 08:18:00,
2013-10-16 19:23:00,71.0,31.3,29.90,North,4,0.0,0.0,23,0.00,,,0.00,Wunderground v.1.15,2013-10-16 08:23:00,
2013-10-16 19:29:00,69.5,33.1,29.90,North,3,0.0,0.0,26,0.00,,,0.00,Wunderground v.1.15,2013-10-16 08:29:00,
2013-10-16 19:34:00,68.4,34.0,29.90,North,3,0.0,0.0,28,0.00,,,0.00,Wunderground v.1.15,2013-10-16 08:34:00,
2013-10-16 19:40:00,69.0,32.7,29.91,North,-999,0.0,0.0,26,0.00,,,-99.99,WeatherLink 5.9.3,2013-10-16 08:40:00,
2013-10-16 19:46:00,66.5,34.1,29.90,North,4,0.0,0.0,30,0.00,,,0.00,Wunderground v.1.15,2013-10-16 08:46:00,
2013-10-16 19:51:00,65.8,33.5,29.90,North,3,0.0,0.0,30,0.00,,,0.00,Wunderground v.1.15,2013-10-16 08:51:00,
2013-10-16 19:57:00,65.2,36.1,29.91,North,3,0.0,0.0,34,0.00,,,0.00,Wunderground v.1.15,2013-10-16 08:57:00,
2013-10-16 20:02:00,64.5,35.5,29.91,North,3,0.0,0.0,34,0.00,,,0.00,Wunderground v.1.15,2013-10-16 09:02:00,
2013-10-16 20:08:00,63.8,35.6,29.91,North,4,0.0,0.0,35,0.00,,,0.00,Wunderground v.1.15,2013-10-16 09:08:00,
2013-10-16 20:13:00,63.3,35.2,29.91,North,4,0.0,0.0,35,0.00,,,0.00,Wunderground v.1.15,2013-10-16 09:13:00,
2013-10-16 20:18:00,62.7,36.0,29.91,North,3,0.0,0.0,37,0.00,,,0.00,Wunderground v.1.15,2013-10-16 09:18:00,
2013-10-16 20:24:00,62.4,36.4,29.91,North,4,0.0,0.0,38,0.00,,,0.00,Wunderground v.1.15,2013-10-16 09:24:00,
2013-10-16 20:29:00,62.0,36.7,29.92,North,3,0.0,0.0,39,0.00,,,0.00,Wunderground v.1.15,2013-10-16 09:29:00,
2013-10-16 20:34:00,61.7,37.1,29.92,North,3,0.0,0.0,40,0.00,,,0.00,Wunderground v.1.15,2013-10-16 09:34:00,
2013-10-16 20:40:00,61.9,36.7,29.92,North,-999,0.0,0.0,39,0.00,,,-99.99,WeatherLink 5.9.3,2013-10-16 09:40:00,
2013-10-16 20:46:00,61.7,37.7,29.92,North,3,0.0,0.0,41,0.00,,,0.00,Wunderground v.1.15,2013-10-16 09:46:00,
2013-10-16 20:52:00,62.0,39.2,29.93,North,4,0.0,0.0,43,0.00,,,0.00,Wunderground v.1.15,2013-10-16 09:52:00,
2013-10-16 20:57:00,61.8,38.4,29.93,North,4,0.0,0.0,42,0.00,,,0.00,Wunderground v.1.15,2013-10-16 09:57:00,
2013-10-16 21:03:00,61.4,38.1,29.92,North,3,0.0,0.0,42,0.00,,,0.00,Wunderground v.1.15,2013-10-16 10:03:00,
2013-10-16 21:08:00,61.3,38.6,29.93,North,4,0.0,0.0,43,0.00,,,0.00,Wunderground v.1.15,2013-10-16 10:08:00,
2013-10-16 21:13:00,61.4,36.2,29.93,North,3,0.0,0.0,39,0.00,,,0.00,Wunderground v.1.15,2013-10-16 10:13:00,
2013-10-16 21:19:00,61.6,37.7,29.93,North,1,0.0,0.0,41,0.00,,,0.00,Wunderground v.1.15,2013-10-16 10:19:00,
2013-10-16 21:24:00,62.0,37.4,29.93,NNE,18,0.0,0.0,40,0.00,,,0.00,Wunderground v.1.15,2013-10-16 10:24:00,
2013-10-16 21:29:00,62.2,36.9,29.93,WNW,295,0.0,0.0,39,0.00,,,0.00,Wunderground v.1.15,2013-10-16 10:29:00,
2013-10-16 21:35:00,62.3,36.4,29.93,WNW,295,0.0,0.0,38,0.00,,,0.00,Wunderground v.1.15,2013-10-16 10:35:00,
2013-10-16 21:40:00,62.2,36.9,29.93,WNW,292,0.0,1.0,39,0.00,,,-99.99,WeatherLink 5.9.3,2013-10-16 10:40:00,
2013-10-16 21:46:00,61.4,38.1,29.93,WNW,295,0.0,0.0,42,0.00,,,0.00,Wunderground v.1.15,2013-10-16 10:46:00,
2013-10-16 21:51:00,60.9,38.8,29.93,WNW,295,0.0,0.0,44,0.00,,,0.00,Wunderground v.1.15,2013-10-16 10:51:00,
2013-10-16 21:56:00,60.5,39.0,29.93,WNW,295,0.0,0.0,45,0.00,,,0.00,Wunderground v.1.15,2013-10-16 10:56:00,
2013-10-16 22:02:00,59.9,39.6,29.93,WNW,295,0.0,0.0,47,0.00,,,0.00,Wunderground v.1.15,2013-10-16 11:02:00,
2013-10-16 22:07:00,59.4,40.2,29.93,WNW,295,0.0,0.0,49,0.00,,,0.00,Wunderground v.1.15,2013-10-16 11:07:00,
2013-10-16 22:12:00,59.0,41.4,29.93,WNW,295,0.0,0.0,52,0.00,,,0.00,Wunderground v.1.15,2013-10-16 11:12:00,
2013-10-16 22:17:00,58.6,41.0,29.92,WNW,296,0.0,0.0,52,0.00,,,0.00,Wunderground v.1.15,2013-10-16 11:17:00,
2013-10-16 22:23:00,58.0,41.4,29.92,WNW,296,0.0,0.0,54,0.00,,,0.00,Wunderground v.1.15,2013-10-16 11:23:00,
2013-10-16 22:28:00,57.6,41.1,29.92,WNW,295,0.0,0.0,54,0.00,,,0.00,Wunderground v.1.15,2013-10-16 11:28:00,
2013-10-16 22:34:00,57.0,41.4,29.92,WNW,295,0.0,0.0,56,0.00,,,0.00,Wunderground v.1.15,2013-10-16 11:34:00,
2013-10-16 22:39:00,56.4,40.9,29.91,WNW,295,0.0,0.0,56,0.00,,,0.00,Wunderground v.1.15,2013-10-16 11:39:00,
2013-10-16 22:45:00,55.5,41.0,29.91,WNW,296,0.0,0.0,58,0.00,,,0.00,Wunderground v.1.15,2013-10-16 11:45:00,
2013-10-16 22:50:00,56.1,41.1,29.91,North,-999,0.0,0.0,57,0.00,,,-99.99,WeatherLink 5.9.3,2013-10-16 11:50:00,
2013-10-16 22:56:00,54.7,41.5,29.91,WNW,295,0.0,0.0,61,0.00,,,0.00,Wunderground v.1.15,2013-10-16 11:56:00,
2013-10-16 23:01:00,54.6,41.4,29.91,WNW,295,0.0,0.0,61,0.00,,,0.00,Wunderground v.1.15,2013-10-16 12:01:00,
2013-10-16 23:06:00,54.4,40.8,29.90,WNW,296,0.0,0.0,60,0.00,,,0.00,Wunderground v.1.15,2013-10-16 12:06:00,
2013-10-16 23:11:00,54.2,40.6,29.91,WNW,296,0.0,0.0,60,0.00,,,0.00,Wunderground v.1.15,2013-10-16 12:11:00,
2013-10-16 23:17:00,54.1,40.5,29.90,WNW,296,0.0,0.0,60,0.00,,,0.00,Wunderground v.1.15,2013-10-16 12:17:00,
2013-10-16 23:22:00,53.9,40.8,29.90,WNW,295,0.0,0.0,61,0.00,,,0.00,Wunderground v.1.15,2013-10-16 12:22:00,
2013-10-16 23:28:00,53.6,40.5,29.90,WNW,295,0.0,0.0,61,0.00,,,0.00,Wunderground v.1.15,2013-10-16 12:28:00,
2013-10-16 23:33:00,53.4,40.3,29.90,WNW,295,0.0,0.0,61,0.00,,,0.00,Wunderground v.1.15,2013-10-16 12:33:00,
2013-10-16 23:38:00,53.2,40.1,29.90,WNW,295,0.0,0.0,61,0.00,,,0.00,Wunderground v.1.15,2013-10-16 12:38:00,
2013-10-16 23:44:00,53.0,40.3,29.90,WNW,295,0.0,0.0,62,0.00,,,0.00,Wunderground v.1.15,2013-10-16 12:44:00,
2013-10-16 23:49:00,52.6,39.9,29.90,WNW,295,0.0,0.0,62,0.00,,,0.00,Wunderground v.1.15,2013-10-16 12:49:00,
2013-10-16 23:54:00,52.0,40.2,29.90,WNW,296,0.0,0.0,64,0.00,,,0.00,Wunderground v.1.15,2013-10-16 12:54:00,